Location: *
(60.1759°S, 155.0663°W)
Time: 11:51:59
(UTC+00:00)

Cosmos 909 Rocket - Pass Details

Date: 17 September 2019
Orbit: 979 x 2100 km, 65.9° (Epoch: 15 October)

Event Time Altitude Azimuth Distance (km) Brightness Sun altitude
Exits shadow 12:31:37 57° 354° (N) 1,251 4.2 -26.4°
Maximum altitude 12:32:50 68° 45° (NE) 1,130 4.2 -26.3°
Drops below altitude 10° 12:39:06 10° 126° (SE) 2,773 7.3 -25.8°
Sets 12:41:36 0° 128° (SE) 3,721 8.3 -25.6°
